Location: Chevoux
(46.3801°N, 4.9476°E)
Time: 04:11:12
(UTC+00:00)

Envisat - Pass Details

Date: 09 December 2021
Orbit: 764 x 766 km, 98.2° (Epoch: 16 January)

Event Time Altitude Azimuth Distance (km) Brightness Sun altitude
Rises 05:44:38 0° 5° (N) 3,244 6.1 -14.3°
Reaches altitude 10° 05:47:09 10° 355° (N) 2,313 5.3 -13.9°
Maximum altitude 05:51:34 31° 295° (WNW) 1,331 3.7 -13.2°
Drops below altitude 10° 05:55:58 10° 235° (SW) 2,298 5.1 -12.5°
Sets 05:58:29 0° 225° (SW) 3,220 6.0 -12.1°
